MESAT1

Last updated on Fri Dec 19 2025 00:03:12 GMT+0000 (Coordinated Universal Time)

1 60209U 24125G 25352.09451983 .00026716 00000+0 53554-3 0 9993 2 60209 97.2516 202.4710 0014585 158.1797 202.0077 15.46576974 81434
UTC large
Height (km)
Speed (km/s)
/
Latitude / Longitude
Inclination (degrees)
Orbital Period (minutes)
Azimuth
Elevation
Range (km)
Doppler Factor

Next 0 passes for location: London (51.5072 / 0.1276)

Sorry there are no passes over London.